The Dalles, WA

7:02 AM PDT on October 22, 2019 (GMT -0700)
Columbia Gorge Regional-The Dalles

Weather History for KDLS - May, 2019

Change the Weather History Date:

Friday, May 24, 2019

  Actual Average Record
Temperature  
Mean Temperature 60 °F -  
Max Temperature 68 °F 75 °F 95 °F (1983)
Min Temperature 53 °F 50 °F 38 °F (1989)
Degree Days  
Heating Degree Days 5    
Growing Degree Days 10 (Base 50)    
Moisture  
Dew Point 45 °F    
Average Humidity 57    
Maximum Humidity 65    
Minimum Humidity 47    
Precipitation  
Precipitation 0.00 in - - ()
Sea Level Pressure  
Sea Level Pressure 29.88 in    
Wind  
Wind Speed 19 mph (NW)    
Max Wind Speed 26 mph    
Max Gust Speed 37 mph    
Visibility 10 miles    
Events      
Averages and records for this station are not official NWS values.
T = Trace of Precipitation, MM = Missing Value Source: NWS Daily Summary

Daily Weather History Graph

Daily Weather History Graph

Search for Another Location

Airport or City:

Astronomy

May. 24, 2019 Rise Set
Actual Time 5:24 AM PDT 8:38 PM PDT
Civil Twilight 4:48 AM PDT 9:15 PM PDT
Nautical Twilight 4:02 AM PDT 10:01 PM PDT
Astronomical Twilight 3:04 AM PDT 11:00 PM PDT
Moon 1:06 AM PDT (5/24) 10:32 AM PDT (5/24)
Length of Visible Light 16h 26m
Length of Day
15h 14m
Waning Gibbous, 68% of the Moon is Illuminated
May 24
Waning Gibbous
May 26
Last Quarter
Jun 3
New
Jun 9
First Quarter
Jun 17
Full

Hourly Weather History & Observations

Time (PDT) Temp. Dew Point Humidity Pressure Visibility Wind Dir Wind Speed Gust Speed Precip Events Conditions
12:53 AM 64.0 °F 50.0 °F 60% 29.83 in 10.0 mi NNW 11.5 mph - N/A   Clear
1:53 AM 63.0 °F 48.0 °F 58% 29.83 in 10.0 mi NW 18.4 mph 31.1 mph N/A   Partly Cloudy
2:53 AM 62.1 °F 46.0 °F 56% 29.83 in 10.0 mi NW 23.0 mph 29.9 mph N/A   Partly Cloudy
3:53 AM 59.0 °F 46.9 °F 64% 29.84 in 10.0 mi NW 24.2 mph 32.2 mph N/A   Clear
4:53 AM 59.0 °F 46.0 °F 62% 29.85 in 10.0 mi WNW 19.6 mph 27.6 mph N/A   Clear
5:53 AM 57.9 °F 45.0 °F 62% 29.88 in 10.0 mi NW 15.0 mph - N/A   Scattered Clouds
6:53 AM 57.9 °F 45.0 °F 62% 29.90 in 10.0 mi WNW 17.3 mph - N/A   Clear
7:53 AM 57.9 °F 46.0 °F 65% 29.90 in 10.0 mi NW 16.1 mph - N/A   Partly Cloudy
8:53 AM 57.9 °F 46.0 °F 65% 29.89 in 10.0 mi NW 19.6 mph 26.5 mph N/A   Mostly Cloudy
9:53 AM 62.1 °F 46.9 °F 58% 29.88 in 10.0 mi WNW 20.7 mph 33.4 mph N/A   Clear
10:53 AM 64.0 °F 46.9 °F 54% 29.88 in 10.0 mi WNW 23.0 mph 28.8 mph N/A   Clear
11:53 AM 64.9 °F 46.0 °F 50% 29.87 in 10.0 mi NW 25.3 mph 33.4 mph N/A   Clear
12:53 PM 66.0 °F 46.0 °F 48% 29.87 in 9.0 mi NW 26.5 mph 31.1 mph N/A   Scattered Clouds
1:53 PM 66.9 °F 46.0 °F 47% 29.87 in 10.0 mi WNW 26.5 mph 31.1 mph N/A   Partly Cloudy
2:53 PM 66.9 °F 46.0 °F 47% 29.86 in 10.0 mi NW 19.6 mph 28.8 mph N/A   Partly Cloudy
3:53 PM 66.9 °F 46.0 °F 47% 29.84 in 10.0 mi NW 24.2 mph 36.8 mph N/A   Clear
4:53 PM 64.0 °F 45.0 °F 50% 29.85 in 10.0 mi WNW 26.5 mph 35.7 mph N/A   Partly Cloudy
5:53 PM 61.0 °F 45.0 °F 56% 29.86 in 10.0 mi WNW 24.2 mph 33.4 mph N/A   Scattered Clouds
6:53 PM 61.0 °F 43.0 °F 52% 29.88 in 10.0 mi WNW 24.2 mph 31.1 mph N/A   Clear
7:53 PM 57.9 °F 42.1 °F 56% 29.89 in 10.0 mi WNW 15.0 mph 25.3 mph N/A   Clear
8:53 PM 55.0 °F 42.1 °F 62% 29.92 in 10.0 mi WNW 13.8 mph 21.9 mph N/A   Clear
9:53 PM 55.0 °F 39.9 °F 57% 29.94 in 10.0 mi WNW 12.7 mph - N/A   Clear
10:53 PM 54.0 °F 39.0 °F 57% 29.95 in 10.0 mi NW 13.8 mph 21.9 mph N/A   Clear
11:53 PM 53.1 °F 39.9 °F 61% 29.95 in 10.0 mi NW 12.7 mph - N/A   Clear